Theta_e
308 311 310 311 310 311 312 311 312 314 314 313 314 314 312 310 312 313 309 312 310 310 310 311 312 312 313 313 314 315 316 316 317 317 316 315 315 315 315 312 312 312 311 311 307 307 307 308 308 307 307 308 309 308 307 308 306 307 307 306 306 306 305 304 303 303 300 287 289 290 290 291 288 289 288 287 285 287 287 284 284 285 286 286 287
306 308 307 309 309 310 310 310 312 311 312 312 312 312 311 310 310 307 309 311 308 309 309 312 312 313 313 314 313 313 314 315 313 313 313 312 312 313 312 309 309 309 305 307 307 305 304 305 305 305 305 306 305 305 306 305 303 303 303 303 305 305 303 303 302 301 301 291 289 286 287 289 289 287 288 287 285 286 285 284 284 284 285 284 284
302 302 304 305 307 307 306 307 308 308 310 310 310 310 309 307 306 308 307 304 301 305 308 308 309 309 310 310 311 310 312 311 309 309 310 310 310 308 307 307 307 307 306 306 305 303 302 302 304 304 303 302 302 302 300 300 299 299 301 298 300 301 297 298 298 297 296 298 295 288 285 286 288 287 287 286 285 286 285 284 283 284 283 283 283
295 298 299 300 299 298 302 302 303 304 306 307 307 307 307 306 302 303 303 301 302 300 302 305 304 305 306 306 306 307 306 305 304 304 309 306 306 307 304 303 304 304 304 303 303 302 303 302 302 303 301 300 300 298 297 295 296 297 297 296 294 296 294 293 293 295 293 296 292 288 286 286 286 285 286 285 285 285 285 284 283 283 283 283 282
294 294 294 296 294 297 297 298 301 301 303 303 304 303 301 299 297 301 299 300 302 299 297 299 301 303 305 306 305 304 304 304 304 302 302 300 303 302 300 300 299 300 300 301 299 300 300 300 301 299 298 297 296 294 294 293 293 292 293 293 292 292 292 292 291 291 291 293 291 284 285 285 285 285 285 284 284 284 283 283 283 282 282 282 281
292 292 291 294 295 295 295 295 298 300 301 301 302 300 298 298 297 297 301 305 299 299 301 297 300 301 302 303 303 302 300 300 301 302 300 298 297 297 297 297 297 298 297 297 297 298 298 298 298 298 296 296 297 295 293 293 292 291 291 292 291 291 291 290 289 289 289 288 288 288 285 285 284 284 284 285 284 282 282 282 281 281 280 279 279
290 292 291 293 294 294 294 293 296 298 299 300 298 297 297 297 298 299 297 302 301 299 296 298 294 298 297 296 298 298 298 297 298 298 297 296 297 296 295 294 295 294 294 295 295 295 295 295 294 294 294 295 294 293 292 291 291 291 291 291 291 291 290 289 288 288 287 287 287 287 287 285 285 285 283 284 284 283 283 282 281 281 279 279 278
288 290 290 293 294 295 294 294 295 296 296 297 297 297 296 296 297 295 292 298 298 299 298 298 293 293 295 296 296 295 296 295 294 293 294 294 294 294 294 294 293 291 291 291 291 291 291 292 292 293 293 293 292 291 291 291 290 290 290 290 290 289 289 288 288 287 287 286 286 288 285 285 282 281 281 281 281 281 282 282 282 282 279 276 277
289 290 290 293 294 295 294 293 293 293 293 295 295 296 296 295 293 292 291 292 293 292 294 294 292 292 291 291 292 291 294 294 293 293 293 293 294 294 293 292 291 291 290 289 289 289 289 290 290 290 290 290 289 291 291 292 292 290 289 289 288 288 288 288 287 287 287 286 287 286 284 283 283 282 281 280 281 283 282 281 281 279 276 275 277
291 292 291 294 294 293 293 293 293 293 294 295 296 295 294 293 292 292 291 291 291 290 290 291 292 293 292 290 291 291 292 292 290 292 293 294 292 293 292 290 290 290 289 289 289 289 289 289 288 287 287 287 288 289 290 291 291 292 290 289 288 288 288 287 287 287 287 287 288 287 286 286 284 283 283 283 283 281 280 280 279 277 274 274 274
292 293 293 294 294 293 293 294 294 295 295 295 293 293 293 291 291 291 290 290 291 290 290 292 291 290 292 291 290 290 291 293 290 294 294 294 292 292 292 291 289 288 288 288 288 288 288 288 287 287 287 287 287 288 289 290 290 290 290 289 289 290 288 287 287 287 287 287 287 286 285 285 286 284 283 283 281 281 280 275 274 274 274 274 277
293 294 294 294 294 294 294 294 294 294 293 294 293 292 291 290 291 290 290 289 289 289 290 292 292 290 290 290 291 290 289 290 293 294 294 294 293 292 291 290 289 288 288 287 287 287 287 288 287 286 287 287 287 287 287 288 289 289 289 289 289 290 291 289 288 287 286 286 286 286 285 285 285 282 280 279 278 276 275 274 275 276 274 274 274
294 295 294 294 294 294 294 294 293 293 293 292 291 290 290 290 290 290 290 289 288 289 290 290 290 289 290 290 290 288 288 290 292 293 293 294 294 291 290 289 289 288 288 287 287 287 287 287 287 286 286 285 285 286 286 286 286 287 287 288 288 289 290 291 291 288 287 286 286 286 285 283 280 278 277 276 278 275 274 274 275 275 276 275 278
294 295 294 294 294 294 294 293 293 293 291 291 290 290 290 290 290 290 289 288 289 289 288 289 288 288 289 290 289 288 289 290 292 292 292 293 294 292 289 289 289 288 288 288 288 287 287 287 287 287 285 284 285 285 285 285 285 285 285 285 285 285 287 288 288 288 286 286 285 284 283 279 278 276 277 280 277 276 275 276 276 277 278 278 280
293 294 294 294 294 293 294 293 293 292 291 290 290 290 290 289 289 289 289 289 289 289 288 288 289 288 288 288 289 289 289 290 291 292 292 293 294 291 289 289 289 288 288 287 287 286 286 287 287 287 285 284 284 284 284 284 284 284 284 284 284 283 282 282 283 284 284 282 282 282 280 279 278 278 278 281 280 280 280 280 280 281 280 278 276
293 293 294 294 294 294 293 293 292 291 291 290 290 290 289 289 289 288 288 288 288 289 288 289 288 287 288 288 288 289 288 290 291 291 292 293 293 288 288 288 287 286 286 286 286 286 286 286 285 285 284 283 285 287 285 282 282 282 282 282 282 282 282 283 284 285 284 283 282 280 278 278 282 280 281 281 281 281 279 279 279 278 276 276 276
292 293 293 294 293 293 293 293 292 291 290 290 290 290 289 289 289 288 288 288 288 288 288 287 288 288 287 288 289 289 287 288 290 290 291 293 289 287 286 286 285 285 284 284 284 284 284 284 284 282 282 282 285 287 288 286 280 279 278 279 280 280 282 282 284 286 286 287 286 286 286 286 287 287 287 287 284 282 279 278 278 276 275 275 276
291 292 293 293 293 293 293 293 292 291 290 290 290 289 289 290 289 288 289 288 288 287 287 287 287 287 287 287 289 288 287 286 289 290 291 292 288 287 286 286 285 285 284 283 283 283 282 284 283 282 282 281 286 287 288 284 278 278 277 278 277 277 277 277 276 279 284 285 286 286 286 286 286 287 287 287 287 284 279 278 278 276 275 275 275
290 291 292 293 292 292 292 292 291 291 290 290 290 289 289 289 289 288 289 288 288 287 287 287 286 286 287 287 286 287 287 286 289 290 290 291 287 286 286 286 285 284 283 282 281 280 279 280 282 281 280 281 286 287 287 284 278 277 277 276 276 275 276 276 275 275 275 275 274 277 277 280 280 281 283 285 287 285 281 278 273 273 274 273 272
292 293 292 290 291 292 292 291 291 290 290 289 289 289 289 289 288 288 288 289 288 287 287 287 287 286 286 286 286 286 286 286 286 289 290 290 289 286 286 286 285 282 281 281 279 277 276 275 279 285 286 286 287 287 287 288 280 277 277 275 275 276 276 273 274 273 273 274 273 275 276 277 277 279 279 280 280 280 279 277 274 274 272 271 270
292 292 290 290 290 291 291 291 290 290 289 289 289 288 289 289 288 288 288 288 288 287 287 287 287 286 286 286 286 286 286 286 286 289 290 290 289 287 286 285 284 283 280 278 276 276 275 275 274 282 285 286 286 287 287 287 286 279 277 275 276 277 277 272 274 280 272 272 273 273 272 271 270 271 274 274 276 275 276 277 275 274 273 272 271
289 288 289 290 290 290 290 290 290 289 288 288 288 288 288 288 288 288 288 288 287 287 286 286 287 286 286 285 286 285 285 285 285 287 289 290 290 288 286 285 285 283 281 277 274 272 273 275 274 280 284 285 285 286 287 287 287 280 279 285 286 286 277 274 270 270 269 269 269 270 269 269 269 269 271 272 273 274 274 273 275 274 273 273 273
288 288 288 288 288 289 289 289 289 289 289 288 288 288 288 288 287 288 287 287 287 287 286 286 286 286 285 285 285 285 285 285 285 285 287 289 290 289 288 286 287 284 282 278 275 276 273 272 273 281 283 284 285 286 286 287 285 281 287 287 287 288 281 269 271 268 268 269 270 269 269 268 270 270 270 271 272 271 272 272 272 273 273 273 273
287 287 287 287 288 288 288 288 289 289 288 288 288 288 287 288 287 288 288 288 288 287 287 286 287 286 286 285 285 285 285 285 285 285 286 288 289 289 289 288 288 282 279 277 275 274 273 273 273 283 284 285 285 286 286 285 281 287 286 287 286 285 273 272 270 270 271 270 269 269 269 269 270 270 272 274 274 273 273 272 271 270 270 270 271
287 287 287 287 287 288 288 288 288 288 288 288 288 288 287 287 288 287 287 288 288 288 287 287 287 287 286 285 284 284 284 284 284 284 285 286 288 289 289 289 289 286 279 275 276 275 279 283 283 284 284 285 284 284 282 283 284 284 284 283 280 272 273 274 273 273 274 274 274 273 273 274 275 276 276 275 274 273 273 273 272 272 271 272 271
287 287 287 287 287 287 287 287 288 288 288 289 289 289 288 288 289 288 288 289 289 289 288 287 287 287 286 286 284 284 283 282 282 281 282 284 285 287 288 287 287 285 281 277 279 282 284 284 284 283 282 281 277 275 275 275 282 281 281 278 271 270 272 275 275 275 276 276 275 276 276 275 275 276 275 274 274 274 273 271 271 272 272 271 270
287 287 287 287 286 287 287 288 288 288 288 289 289 289 289 288 289 288 288 289 289 289 288 287 287 287 287 286 284 283 281 281 281 280 278 280 281 281 281 280 283 282 278 278 279 277 280 280 280 282 281 281 280 279 277 277 274 273 270 270 271 272 273 274 275 277 277 277 276 277 277 276 274 274 274 274 274 274 273 272 272 272 272 271 270
287 286 284 284 286 286 287 286 287 288 288 288 289 289 289 288 289 288 288 289 289 289 289 288 288 288 288 286 284 282 281 280 280 280 278 279 277 270 272 273 275 276 274 273 273 274 276 277 275 272 272 272 271 270 269 269 269 270 269 268 268 271 275 279 279 278 278 278 277 277 276 276 275 275 274 273 273 273 273 272 272 272 272 270 268
286 285 285 285 286 287 287 287 288 288 288 288 289 289 289 289 289 289 289 290 290 290 290 289 289 289 289 287 284 283 282 281 281 282 279 280 277 275 273 275 272 271 276 276 272 272 272 272 271 271 270 270 269 268 268 268 269 267 267 270 267 266 268 271 273 275 276 276 276 276 276 276 275 275 274 273 273 272 272 271 272 271 271 271 269
284 285 285 286 286 287 287 288 288 288 288 288 288 288 286 288 289 289 288 287 288 288 289 289 289 288 288 287 286 286 285 284 283 283 282 282 282 281 280 279 278 276 280 281 274 270 269 269 267 269 268 268 269 269 268 267 267 268 267 272 268 268 269 269 270 271 273 274 275 275 275 275 274 274 273 273 272 272 271 273 269 270 269 269 269
284 285 285 286 286 287 287 287 288 288 288 288 288 287 285 286 287 287 287 286 287 287 287 287 287 287 287 282 280 285 284 284 284 283 283 284 284 284 284 284 283 283 283 277 273 272 271 271 266 266 267 267 269 269 269 270 270 268 268 267 267 269 270 268 269 270 270 270 271 272 273 273 273 273 272 272 272 272 271 271 270 269 269 269 268
285 285 285 285 286 286 287 287 287 287 287 287 287 286 285 284 283 285 286 286 286 286 286 286 286 286 286 284 279 278 282 284 283 283 283 284 285 285 285 285 285 284 283 280 271 270 272 271 270 270 270 272 271 271 271 271 271 269 267 268 270 269 269 269 270 268 269 269 270 271 271 271 272 272 272 272 272 271 271 271 270 269 269 270 269
285 284 285 285 286 286 287 287 287 287 287 286 286 286 285 285 282 280 282 285 285 286 286 286 286 286 286 285 284 282 281 283 284 284 284 285 285 285 286 286 286 285 283 277 275 273 274 275 274 273 273 273 273 272 272 272 271 270 268 268 268 267 268 268 270 269 270 270 270 271 271 272 272 272 272 272 271 271 271 271 271 270 270 269 269
283 284 284 285 286 286 287 287 287 287 287 287 286 286 286 285 285 282 279 280 281 282 284 285 285 285 285 285 283 283 283 284 284 283 284 284 285 285 285 283 286 285 280 275 276 275 275 274 273 272 271 271 272 272 271 271 270 268 268 267 267 267 268 270 270 271 271 272 272 272 272 272 273 272 272 272 272 271 270 270 270 269 269 269 269
279 280 281 283 285 286 286 287 287 287 287 286 286 285 285 284 283 281 281 280 279 278 278 280 282 283 282 282 283 283 284 284 284 284 284 284 284 284 283 278 274 273 272 271 272 271 272 272 272 272 272 272 272 271 270 269 267 268 270 270 271 272 273 273 272 273 273 273 272 272 272 272 272 272 271 271 270 270 270 270 269 270 269 269 269
281 279 279 282 285 285 286 286 286 286 286 286 285 285 283 282 281 281 279 278 277 276 275 274 275 280 282 282 284 284 284 284 284 284 284 284 284 282 275 272 271 270 270 271 271 272 272 272 272 272 272 272 272 271 271 271 273 273 274 274 273 274 274 273 273 273 274 273 272 271 272 271 271 270 268 268 269 269 269 269 269 270 270 270 269
283 282 282 282 283 284 283 284 284 284 283 282 282 281 280 280 279 278 277 276 275 274 273 272 274 275 277 276 280 282 283 283 283 283 283 283 282 275 272 272 271 270 269 269 270 270 269 269 269 270 271 270 269 269 269 269 269 269 270 269 268 268 269 269 270 270 269 268 268 269 270 270 269 269 269 269 269 270 270 270 270 270 270 270 270
281 282 282 282 281 281 281 281 280 279 279 279 280 279 278 278 277 277 275 274 273 272 271 272 274 275 275 275 277 276 276 276 276 274 275 274 271 270 270 269 269 268 267 268 268 267 267 267 267 267 268 268 267 267 267 266 266 265 266 266 268 268 270 270 270 268 268 268 269 270 271 271 271 271 271 270 270 270 269 269 267 266 267 269 269
278 279 278 279 280 280 280 279 278 279 278 278 278 278 277 276 275 275 274 273 272 271 271 271 271 272 272 272 272 273 273 271 269 268 267 267 267 268 268 268 267 267 266 266 266 266 266 266 266 266 266 266 266 265 265 265 265 265 266 266 266 267 268 268 268 268 268 268 267 268 268 268 269 268 269 268 268 269 268 266 265 266 267 268 268
276 277 277 278 278 278 278 277 277 278 277 277 277 277 276 275 275 274 273 272 271 271 270 270 270 270 269 269 270 270 270 268 267 267 267 266 266 266 266 265 265 265 265 265 265 265 264 264 264 264 264 264 265 264 264 264 264 265 265 265 266 266 266 265 264 264 264 264 264 264 265 266 267 267 267 268 268 268 268 268 268 268 268 268 268
276 276 274 277 277 277 276 276 276 277 276 276 276 276 275 275 274 273 273 271 270 270 270 269 269 268 269 271 272 271 269 267 267 266 266 266 265 265 265 265 265 265 265 265 264 264 264 264 264 263 264 263 263 263 263 262 263 263 263 264 263 263 263 262 262 261 262 262 262 263 264 265 265 265 265 266 268 268 268 268 268 268 268 268 268
275 275 275 275 275 275 275 274 274 273 274 274 275 275 273 273 273 273 272 270 269 268 268 267 268 268 271 271 271 270 267 266 266 266 265 265 264 264 264 264 264 264 264 264 264 264 264 263 263 263 262 262 262 262 262 261 261 261 261 261 261 261 261 260 260 260 260 260 261 261 261 262 263 263 264 265 265 265 266 266 267 267 267 267 266
274 274 274 273 274 274 273 273 273 273 273 273 272 271 271 272 271 271 270 269 268 268 267 267 267 268 268 270 269 268 266 266 265 265 264 264 264 264 263 263 263 263 263 263 263 263 263 263 262 262 262 262 262 261 261 260 260 260 260 260 260 260 260 260 260 260 259 260 260 261 261 261 262 262 263 264 264 265 265 266 266 266 266 266 266
272 272 271 271 271 270 270 271 271 271 271 270 270 270 270 270 269 269 268 268 268 267 267 266 266 266 266 267 266 265 265 264 264 264 263 263 263 263 263 263 263 263 263 262 262 262 262 262 262 261 261 261 261 260 260 260 260 259 259 259 259 260 260 259 259 259 259 259 259 260 260 260 261 261 261 262 263 263 264 265 265 265 265 265 265
271 271 270 269 269 269 269 269 269 269 269 269 269 269 268 268 268 268 268 267 266 266 266 265 265 264 264 264 264 264 264 264 264 263 263 263 262 262 262 262 262 262 262 262 262 262 261 261 261 261 261 261 260 260 259 259 259 258 258 258 258 258 258 258 258 258 259 258 259 259 259 259 259 260 261 262 263 263 263 263 263 263 264 264 264
270 270 269 269 268 268 268 268 268 269 269 268 268 267 267 267 268 267 267 267 266 265 265 264 264 264 263 263 263 263 263 263 263 263 262 262 262 262 262 262 262 262 261 261 261 261 261 261 260 260 260 260 260 259 259 258 258 258 258 257 257 257 257 257 256 256 257 258 258 259 259 260 260 261 261 261 261 262 262 262 263 263 264 264 264
270 269 269 269 268 268 268 268 269 269 269 268 268 267 267 267 266 266 266 265 265 264 264 264 263 263 263 262 262 262 263 262 262 262 262 262 261 261 261 261 261 261 261 261 260 260 260 260 260 259 259 259 259 259 259 258 257 257 257 257 256 257 257 256 257 258 258 259 260 260 260 260 260 260 260 261 261 261 262 262 262 262 262 263 263
269 269 269 268 268 268 268 268 268 267 267 267 266 266 266 265 265 265 264 264 263 263 263 263 263 262 262 262 262 262 262 262 262 261 261 261 261 261 261 261 260 260 260 260 260 260 259 259 259 259 258 259 258 258 258 257 257 256 256 256 256 256 257 259 259 260 260 260 259 259 259 259 259 260 260 260 260 260 260 260 261 261 262 262 263
269 268 268 268 268 268 267 267 267 266 266 265 265 265 265 264 264 264 263 263 263 263 262 262 262 262 261 262 261 261 261 261 261 261 260 260 260 260 260 260 260 259 259 259 259 259 259 258 258 258 258 257 257 257 257 256 257 256 256 255 257 259 260 261 261 260 261 260 259 258 258 259 259 260 260 260 260 260 260 260 261 261 261 261 261
268 268 268 267 267 266 266 266 266 265 265 264 264 263 263 263 263 262 262 262 262 262 262 261 261 261 261 261 261 260 260 260 260 260 260 260 260 259 259 259 259 259 259 258 258 258 258 258 257 257 257 257 256 256 256 256 255 256 255 256 259 261 262 262 262 262 262 261 260 259 259 259 259 259 260 260 259 259 259 260 260 260 260 260 260
266 266 266 265 265 265 265 265 265 264 264 263 263 263 262 262 262 262 261 261 261 261 261 260 260 260 260 260 260 260 260 260 260 260 260 259 259 259 259 259 258 258 258 258 257 257 257 257 257 256 256 256 256 256 255 255 254 255 257 259 261 262 262 261 262 262 262 261 258 257 257 258 258 259 259 259 259 258 259 260 259 259 259 259 259
Wind_Speed
9 10 8 9 9 10 9 8 9 9 8 9 10 9 7 7 8 8 5 8 7 7 7 7 7 8 8 8 8 8 7 7 6 6 7 6 5 5 6 6 7 6 6 6 5 4 5 6 5 3 3 4 5 5 5 6 5 6 5 5 7 7 8 9 10 11 5 1 2 1 2 5 4 7 8 6 5 6 6 5 6 7 6 6 6
9 9 8 8 9 8 9 8 9 7 8 8 9 8 7 8 8 6 8 7 6 7 7 7 7 7 8 8 7 8 7 7 6 6 6 6 6 6 6 6 5 6 4 5 6 5 4 4 4 4 4 5 4 5 6 5 4 5 5 6 8 9 5 6 9 8 10 1 1 3 1 4 5 5 10 9 7 6 7 6 4 4 5 5 6
6 6 7 7 9 8 7 7 7 7 8 7 8 8 7 6 6 8 7 5 5 6 7 7 7 7 7 7 7 6 7 7 6 6 7 6 7 5 5 5 6 6 6 6 5 4 3 4 5 4 4 4 5 5 4 4 3 4 6 3 5 5 3 5 4 6 7 7 3 2 3 3 4 1 2 1 1 3 5 6 6 4 4 5 5
5 5 5 6 5 5 6 6 6 7 8 7 8 8 7 7 5 6 5 4 6 6 6 6 6 6 6 6 6 6 6 5 5 5 6 6 6 6 5 5 5 5 4 4 4 4 5 4 4 4 4 4 4 3 3 3 4 5 5 5 4 5 3 1 4 4 3 5 2 1 2 0 1 4 3 3 5 5 6 4 4 6 6 5 6
4 5 5 6 5 6 6 5 7 7 8 7 9 7 6 5 5 6 5 6 7 6 6 5 5 6 7 7 7 6 6 6 5 5 5 5 5 5 4 4 4 3 3 3 4 3 3 3 4 3 3 3 4 4 4 4 4 3 4 4 3 2 1 0 2 1 3 6 5 2 1 1 2 2 2 4 2 2 2 6 6 6 5 4 3
4 5 6 7 7 7 6 6 8 8 9 8 8 7 6 5 6 5 7 8 6 6 6 5 6 6 6 6 6 6 5 5 5 5 5 5 4 3 3 4 4 4 3 2 2 2 3 3 3 2 2 3 5 4 3 4 3 3 4 4 3 1 0 0 0 1 1 4 3 4 1 1 0 1 3 4 4 4 4 4 3 4 5 5 4
5 6 6 6 6 8 7 9 8 8 8 7 5 5 6 6 7 7 6 6 7 6 4 5 4 5 4 4 5 5 4 4 4 4 4 4 4 4 3 3 3 3 3 2 1 2 2 3 2 2 3 4 4 4 3 3 3 4 4 3 0 0 1 2 1 1 2 3 3 3 4 1 2 5 2 3 3 4 6 4 8 6 4 5 6
5 5 5 7 7 8 8 8 7 7 5 5 6 6 5 6 6 5 5 5 5 5 5 5 4 3 4 4 4 4 4 4 3 3 3 3 3 3 4 4 4 3 2 2 2 3 2 2 1 0 1 2 3 3 3 3 2 3 2 1 2 2 2 2 2 2 2 2 3 5 2 3 0 1 2 2 1 4 6 8 10 8 6 3 4
7 6 6 8 8 7 6 6 4 4 5 5 5 6 6 5 5 4 4 4 3 3 4 4 4 3 2 3 3 2 3 4 4 4 4 4 4 4 4 3 2 2 1 1 1 1 2 3 3 2 1 1 1 3 4 4 4 3 3 4 3 3 3 2 2 2 2 3 6 2 2 4 4 3 3 4 8 8 1 4 6 4 0 2 4
7 7 8 9 6 6 6 6 6 6 6 7 6 6 6 5 5 4 4 3 3 3 3 3 4 4 4 2 1 2 3 3 4 7 5 4 3 3 3 3 3 3 3 2 1 1 2 3 3 5 5 5 5 4 4 5 6 5 4 5 5 3 3 3 3 3 3 4 5 3 4 6 5 5 6 6 3 1 2 3 7 3 2 3 4
8 8 10 8 6 6 6 7 6 7 7 6 6 7 6 5 5 4 4 4 4 3 3 4 4 4 4 4 3 3 3 3 5 4 4 5 4 4 4 4 4 3 3 2 2 2 2 2 2 3 4 4 3 4 3 3 4 4 5 5 5 5 3 3 3 3 3 3 2 3 4 6 5 4 6 5 2 5 3 3 3 1 3 3 8
9 9 8 7 7 7 7 7 7 7 6 7 7 6 5 5 5 5 5 4 4 4 5 5 4 4 3 4 4 4 4 4 5 6 6 7 6 5 4 3 3 3 3 2 2 2 2 3 2 1 1 1 1 1 2 3 3 2 2 2 3 3 3 4 4 3 3 3 4 5 4 6 6 3 4 2 4 1 2 3 4 5 5 6 4
8 8 8 8 8 7 7 8 7 7 8 7 6 6 5 5 5 6 6 5 4 6 5 5 5 4 5 5 5 4 4 5 6 6 6 6 7 5 3 4 4 4 3 3 3 3 4 4 3 2 2 3 2 1 1 1 3 3 2 2 2 3 4 5 5 4 2 3 5 5 5 3 3 4 3 4 3 4 4 5 4 5 6 5 8
9 9 7 8 8 8 8 8 8 8 7 6 6 6 6 7 6 5 5 5 6 5 4 5 5 5 5 5 5 5 5 5 6 5 5 6 7 7 5 5 5 5 4 4 3 4 4 4 4 3 2 2 2 2 1 1 1 2 2 2 2 2 2 2 2 4 4 5 4 6 3 4 5 3 3 3 4 4 5 6 5 6 7 10 9
9 8 8 8 7 8 9 9 9 8 7 7 7 7 7 6 7 6 6 7 6 6 6 5 6 5 5 5 5 5 4 5 5 5 5 6 8 6 5 4 4 3 3 2 3 3 3 3 2 2 2 1 1 1 1 1 2 2 2 1 2 2 2 1 1 2 4 4 4 5 4 4 4 4 3 4 6 6 5 6 6 7 3 1 3
8 7 9 9 10 9 10 10 9 8 8 7 8 9 8 8 8 6 5 4 4 4 4 5 6 5 5 5 5 5 3 5 5 5 6 6 7 5 5 4 4 4 3 2 2 2 2 2 2 2 2 1 2 4 3 2 2 2 1 1 2 2 2 2 3 3 3 3 4 4 4 3 5 4 4 5 5 4 1 1 1 0 1 3 5
9 10 10 10 11 11 11 11 10 10 9 9 10 10 9 8 6 5 6 5 5 5 5 4 5 6 6 5 6 5 4 4 5 5 5 7 6 4 4 4 4 4 3 2 2 2 2 2 2 3 2 2 3 3 4 4 2 2 1 0 1 1 0 1 1 1 2 3 4 5 5 6 6 7 7 9 7 4 3 1 5 2 1 5 5
10 10 12 12 12 11 11 11 11 11 10 12 12 9 7 6 6 6 7 7 6 5 5 4 4 5 6 6 6 6 4 4 5 5 6 8 6 5 4 4 4 4 3 2 1 2 2 3 3 3 2 2 3 4 4 4 3 3 2 1 1 2 2 1 1 0 1 1 1 2 3 4 5 6 7 8 8 6 5 5 1 4 4 4 6
11 13 15 13 9 9 9 9 10 11 12 12 10 9 9 8 5 6 5 5 5 5 5 5 5 4 4 5 6 7 5 5 7 7 7 9 7 4 5 4 5 3 3 2 2 1 1 1 3 3 3 3 4 4 5 5 3 3 3 2 0 1 1 1 1 0 0 1 1 1 2 2 1 2 3 5 6 6 4 2 2 2 4 4 4
16 14 9 6 8 9 9 10 10 11 11 7 7 8 6 7 8 8 6 6 6 5 5 5 7 5 5 5 5 5 6 5 5 8 8 9 8 5 4 5 5 5 3 4 3 1 0 0 1 2 2 3 3 4 5 6 4 3 3 2 1 1 2 2 1 2 1 1 1 0 1 1 2 2 2 2 3 1 1 1 2 4 4 4 4
12 9 8 8 8 10 9 10 11 8 6 7 6 7 7 8 8 9 8 7 7 6 7 6 6 6 5 5 5 5 5 6 5 8 8 9 10 8 4 4 5 5 5 4 3 2 1 1 1 3 3 2 2 2 4 4 5 4 3 3 3 3 5 1 1 4 1 0 0 0 1 1 2 2 1 1 1 1 0 0 1 3 4 4 4
6 5 7 9 9 9 10 8 7 7 6 7 9 8 7 7 8 8 7 8 9 8 7 6 6 6 5 5 5 6 5 7 6 8 9 9 10 9 6 5 6 6 6 4 3 3 3 2 2 3 2 2 1 2 3 3 4 4 3 5 5 4 1 1 2 2 2 1 0 1 1 1 3 3 2 2 3 3 1 1 1 1 2 3 4
5 6 6 6 8 9 9 10 9 8 8 9 9 9 7 8 8 8 9 9 9 9 8 7 7 7 6 5 4 5 6 5 8 7 9 9 11 10 9 7 8 6 7 6 6 5 4 3 2 2 2 2 2 3 4 4 4 2 2 2 2 3 4 3 3 2 1 1 1 2 3 2 2 4 3 4 4 2 3 3 3 2 2 2 2
6 6 7 8 8 9 10 10 10 9 10 9 9 9 9 9 8 8 8 9 9 9 8 8 8 8 8 7 5 4 4 5 6 8 8 10 10 11 11 11 10 7 6 6 6 5 4 4 3 4 3 3 5 6 7 6 3 4 4 4 4 3 4 4 2 1 1 1 2 3 4 3 2 3 3 4 3 3 3 3 3 2 2 3 3
7 8 9 9 10 9 8 9 10 10 10 10 11 10 10 9 9 8 9 9 9 10 9 9 10 9 8 8 7 6 5 5 5 6 8 9 10 11 11 12 12 10 6 4 5 5 5 5 5 5 5 7 9 9 8 7 7 6 6 6 4 3 3 4 3 2 1 2 2 2 3 3 3 3 3 2 2 1 1 3 2 2 2 2 3
7 10 9 8 10 9 10 8 8 9 9 9 10 9 10 11 10 9 10 10 10 10 10 9 9 9 9 8 8 8 6 6 6 5 5 7 7 10 11 10 11 12 8 7 7 7 7 7 7 7 7 6 6 5 5 4 7 7 7 5 3 3 3 4 3 1 0 2 2 3 3 2 2 2 0 0 1 4 2 2 2 4 2 2 3
8 7 8 7 4 6 9 9 9 8 9 8 8 8 8 9 9 10 10 10 10 10 9 10 10 10 10 9 8 8 8 7 7 6 6 6 6 6 7 6 8 8 6 5 6 6 6 6 6 7 8 10 9 7 6 5 5 5 4 3 4 3 2 2 2 1 0 1 1 2 2 0 0 0 2 2 3 4 2 2 3 4 2 3 2
7 6 4 3 5 6 7 6 7 6 7 8 8 8 8 9 10 12 13 14 14 13 13 12 13 13 12 10 9 9 9 8 8 9 8 7 7 7 7 7 6 6 7 5 6 5 6 6 7 4 5 6 6 6 6 5 4 4 4 3 3 3 2 3 2 1 1 0 1 1 1 0 2 2 2 2 3 4 2 2 2 3 3 2 3
7 5 6 6 7 6 7 6 7 7 7 8 8 9 10 10 11 9 7 6 8 10 11 11 10 9 9 10 12 11 9 11 11 6 8 8 9 8 7 7 6 6 8 10 7 5 5 6 6 6 5 6 6 6 5 5 5 3 3 3 3 4 3 3 2 1 0 1 1 2 2 2 2 1 1 1 3 3 3 2 3 2 3 1 3
6 7 6 7 7 7 7 7 7 7 7 7 7 6 5 9 8 9 8 6 8 7 6 7 5 5 6 6 7 10 10 6 9 11 11 12 11 11 9 9 9 9 12 13 7 6 5 6 5 6 6 6 6 6 5 4 3 4 2 2 3 2 2 2 1 0 0 0 0 1 2 2 2 2 2 3 3 3 3 3 2 1 1 3 4
6 7 7 8 8 8 7 7 7 7 6 7 7 7 4 4 7 9 9 9 9 8 8 8 9 9 8 5 1 4 9 11 11 11 12 12 11 12 11 11 14 16 16 10 5 6 6 7 5 5 5 6 6 5 3 2 0 0 1 1 1 1 2 1 1 1 1 0 1 1 2 2 2 2 2 3 3 4 3 2 1 2 3 3 4
8 8 8 6 7 8 7 7 7 8 7 7 7 7 7 7 0 2 9 11 11 11 11 11 12 12 13 12 9 2 7 11 13 13 12 13 12 12 13 14 16 16 13 10 8 5 5 6 6 5 5 5 4 4 3 1 0 0 0 2 3 1 1 2 0 0 0 0 1 2 2 2 3 3 3 4 4 3 3 3 3 3 3 3 4
8 7 7 7 7 8 8 8 8 8 9 9 9 8 9 8 10 5 1 2 7 11 11 11 11 11 9 12 13 10 8 9 12 12 12 12 12 12 12 14 15 15 11 6 7 7 6 6 6 5 5 5 4 3 2 1 0 0 0 0 1 2 2 1 0 0 1 2 2 3 3 4 3 3 3 3 3 3 3 3 3 3 3 4 5
6 5 6 7 8 8 8 8 8 8 8 8 8 9 9 8 8 8 8 6 4 3 4 9 11 11 10 13 12 13 13 12 11 12 12 12 13 13 11 9 14 12 8 6 7 7 6 6 5 5 4 4 4 3 1 1 0 0 0 1 1 2 3 2 0 2 2 3 3 3 2 2 3 2 3 3 3 3 3 4 3 4 4 5 5
5 5 6 6 6 7 7 7 7 7 8 8 8 8 8 6 7 8 8 8 6 6 4 4 6 9 10 10 12 13 13 13 13 13 13 13 14 14 14 9 7 5 6 5 6 7 8 6 6 5 5 5 4 4 2 0 0 0 0 1 2 2 2 2 2 2 3 3 2 2 2 2 2 2 2 3 3 3 3 4 4 4 5 5 5
5 5 4 6 5 4 5 5 6 6 7 7 6 7 6 7 7 7 6 6 6 6 5 3 2 5 10 10 13 14 14 14 14 14 13 15 16 14 9 6 6 5 7 6 7 6 6 6 6 5 5 4 4 3 2 2 3 4 4 4 4 4 4 4 3 2 2 1 1 1 1 1 1 1 1 2 3 4 4 4 4 4 5 5 5
4 4 4 4 4 4 3 3 3 4 3 3 4 5 5 6 4 7 6 7 7 6 6 5 6 6 6 5 10 13 16 15 15 15 14 13 11 6 5 5 6 7 8 7 7 6 6 5 5 5 4 4 4 3 4 4 4 4 3 4 3 3 3 3 3 3 2 2 2 3 2 3 3 3 4 4 4 4 4 3 3 4 5 6 7
4 4 4 4 3 3 4 4 4 5 4 5 5 6 6 6 7 7 7 7 8 8 7 6 5 7 8 6 6 7 10 13 14 12 11 10 8 6 6 6 6 8 8 5 5 6 6 5 5 5 4 4 4 4 4 4 3 3 3 3 3 2 4 3 5 3 3 2 3 3 3 3 3 3 3 3 3 3 3 4 3 4 4 7 6
3 4 5 7 5 5 5 5 5 5 5 6 6 6 6 7 7 7 7 8 8 7 6 6 6 6 6 5 7 7 9 7 6 6 6 6 6 6 6 6 6 6 5 5 5 6 6 6 5 4 4 3 4 4 4 4 3 3 3 3 3 3 3 3 4 4 4 4 4 4 4 4 4 4 4 4 4 4 4 4 4 4 5 5 5
4 3 4 7 4 5 4 4 5 6 5 7 6 7 7 8 9 9 9 9 9 8 7 7 7 6 5 5 7 6 8 7 7 7 7 7 6 6 6 6 6 6 6 6 5 5 6 5 4 5 4 4 4 4 4 5 4 3 3 3 2 2 3 3 3 3 3 3 3 3 4 3 4 3 3 4 4 4 5 5 4 4 5 5 6
4 4 4 5 5 4 4 4 5 6 6 6 6 7 8 7 8 8 9 9 9 8 7 6 5 4 4 5 6 6 8 8 7 6 6 7 6 6 6 5 5 5 4 4 4 4 5 5 4 4 5 4 4 4 4 5 4 3 3 2 2 2 2 3 3 2 3 3 3 3 4 5 5 4 4 4 6 6 5 5 5 5 5 5 6
4 4 4 4 4 5 5 4 3 4 6 5 6 7 6 6 8 8 9 9 9 8 8 7 5 4 6 10 10 11 8 7 6 7 6 6 5 6 4 4 4 4 3 3 3 4 4 4 4 4 5 4 4 3 4 5 4 4 3 2 2 2 2 2 2 2 3 3 3 3 3 4 4 4 5 5 4 4 5 5 5 5 5 5 5
4 4 4 4 5 5 6 6 6 6 6 6 5 5 6 7 7 7 8 8 8 8 8 8 6 6 6 9 11 11 7 7 6 7 6 5 4 4 4 4 4 4 4 4 3 3 4 4 4 4 4 4 5 4 4 3 3 3 2 1 1 2 2 2 2 2 2 3 3 3 3 3 4 3 4 4 4 4 5 5 5 4 5 5 5
4 4 3 4 4 5 4 5 6 5 6 6 7 6 6 6 7 7 8 8 8 7 7 7 6 7 6 7 7 7 7 6 6 7 7 5 5 4 4 4 5 4 4 3 3 3 4 4 4 4 4 4 4 4 4 3 3 2 1 0 1 2 1 1 2 2 2 2 3 3 3 4 4 4 5 5 4 5 5 5 5 5 5 4 5
5 5 6 5 5 5 5 5 6 6 7 7 7 7 7 7 8 7 8 8 8 7 7 6 6 6 7 6 6 7 6 6 6 5 5 4 5 4 4 4 4 4 4 4 3 4 4 4 4 4 4 3 3 4 4 3 2 2 0 0 1 2 2 2 2 2 2 2 3 3 3 3 4 4 4 5 4 4 4 4 5 6 7 6 6
5 5 5 6 6 5 5 6 5 7 7 7 7 7 7 7 7 8 8 7 7 7 8 6 5 6 7 7 6 6 6 6 5 5 5 5 5 5 5 4 4 4 4 4 4 4 4 4 4 4 3 3 3 3 3 2 1 0 0 1 2 3 3 3 3 2 3 3 3 3 4 4 4 4 5 4 4 4 4 5 5 6 6 6 6
5 5 5 5 6 6 6 6 7 7 7 7 7 8 8 7 7 8 7 8 8 7 7 7 6 5 4 4 5 5 5 5 5 5 5 5 5 5 5 4 4 4 4 4 3 3 4 4 3 4 3 2 2 2 1 1 0 0 1 1 2 3 3 3 3 3 4 4 4 4 4 4 4 4 5 5 4 4 4 5 5 6 6 6 6
5 5 5 5 7 7 6 7 8 7 6 6 9 11 11 8 7 9 8 7 7 7 6 5 4 5 5 5 5 5 5 5 5 5 5 5 5 4 4 4 4 3 3 3 3 3 3 4 4 3 3 2 2 1 0 0 0 1 1 3 3 3 5 5 4 5 5 4 4 3 3 4 4 5 4 4 3 4 5 5 6 6 6 6 6
6 6 6 6 6 7 8 10 8 7 7 8 7 7 6 7 7 7 7 6 6 5 4 5 5 5 4 5 5 5 5 5 5 5 5 4 5 4 4 4 4 3 3 3 3 3 4 3 3 2 2 1 0 1 1 1 1 2 2 2 5 8 9 9 5 2 4 4 4 5 5 5 5 4 4 4 4 4 5 5 6 7 6 6 6
7 7 7 8 9 9 8 9 10 8 7 7 8 8 6 7 7 6 6 6 5 5 4 4 4 4 5 5 5 5 5 4 5 5 4 4 4 4 4 3 3 3 3 3 2 3 3 2 2 1 1 1 1 1 1 1 2 2 3 4 7 9 8 5 5 7 6 4 4 4 3 3 3 4 3 4 4 4 4 5 6 7 6 6 6
8 9 10 11 12 12 12 10 8 7 8 7 8 7 8 7 6 5 5 4 5 4 4 4 4 4 4 4 4 5 5 4 4 4 4 5 4 3 3 3 3 3 3 2 2 2 2 1 1 1 1 1 1 1 2 2 2 3 6 9 9 7 5 6 4 5 3 1 0 2 3 3 3 4 4 4 4 4 7 6 6 5 5 5 5
Wind_Direction
202 214 202 212 208 207 204 197 205 207 208 206 211 216 210 203 206 209 197 215 200 206 205 207 207 209 211 212 216 217 217 221 222 224 231 234 229 227 239 233 231 233 226 238 225 213 213 219 226 231 236 244 243 247 250 247 240 239 239 237 243 234 220 224 240 255 262 124 151 140 113 130 186 197 208 201 182 186 177 198 193 201 199 201 204
207 210 203 207 207 208 207 204 206 201 206 205 209 210 206 204 205 200 211 211 190 204 206 208 207 207 209 212 213 215 213 217 217 215 222 227 232 228 234 227 231 239 226 232 232 214 215 228 249 248 236 238 248 248 242 245 235 239 239 228 239 247 221 226 241 245 255 244 297 132 131 178 211 187 205 196 199 168 190 191 204 210 203 198 205
209 205 204 206 212 211 205 205 196 199 204 204 208 208 208 211 202 206 208 202 194 201 206 206 207 206 209 210 210 210 212 211 212 209 216 218 224 232 221 218 221 228 225 228 228 212 209 215 230 235 235 231 235 239 238 245 238 232 248 234 248 261 263 236 256 255 255 263 224 191 186 193 219 211 225 31 115 164 195 202 202 202 217 206 210
203 204 209 217 214 200 205 198 190 197 203 205 207 210 208 211 194 200 197 191 197 209 207 206 201 201 203 207 206 208 210 215 214 204 207 207 214 225 219 207 208 207 208 211 216 212 225 227 237 234 239 235 248 249 246 230 234 234 238 245 228 259 293 264 245 266 281 273 347 30 28 28 8 47 90 106 147 180 203 196 203 214 199 204 212
194 206 203 205 202 201 205 191 195 198 206 203 211 206 205 193 182 189 180 195 202 192 204 196 191 193 197 200 202 204 203 200 204 207 208 199 198 200 196 190 191 194 199 214 219 213 221 221 244 234 221 228 261 251 250 239 243 234 253 258 244 262 309 210 274 322 290 290 315 23 34 73 61 50 127 154 151 203 191 211 216 222 211 223 218
207 195 199 197 200 203 202 196 203 203 205 206 206 196 186 182 182 189 183 186 186 186 177 182 176 187 195 192 186 195 195 179 185 195 192 185 184 185 184 184 187 180 180 194 213 214 220 230 232 218 203 211 240 243 237 243 245 239 248 257 239 161 136 75 119 234 238 259 265 299 59 107 342 137 207 198 187 210 231 234 258 224 203 231 234
193 195 193 199 195 206 200 203 201 205 204 202 185 178 177 176 172 180 191 179 175 177 177 166 185 166 185 168 169 174 175 172 182 192 189 178 178 182 189 187 182 174 170 172 177 191 201 211 210 188 208 214 225 233 229 226 217 245 241 259 241 132 231 233 184 201 217 250 271 230 276 259 184 248 187 209 225 218 223 222 243 220 205 212 238
181 194 180 200 205 205 207 203 204 202 193 181 177 175 165 171 176 171 168 175 178 176 171 174 179 175 171 180 186 172 165 170 176 171 165 168 167 182 180 185 178 156 135 150 181 192 180 164 130 136 200 218 208 219 187 210 183 224 230 177 168 173 213 208 191 187 211 247 239 274 214 250 304 70 65 137 224 267 223 218 237 233 223 211 222
181 187 181 207 210 204 197 197 190 188 183 177 175 176 173 175 169 163 168 166 156 163 162 157 151 159 148 162 160 150 164 182 171 167 171 174 171 172 171 160 144 135 149 162 168 124 93 87 94 113 132 161 203 204 203 190 181 202 191 162 167 176 196 193 196 173 211 219 268 226 259 252 242 206 211 193 211 231 209 188 248 277 329 197 247
176 193 198 210 203 195 190 188 185 182 184 182 180 174 175 177 174 175 178 171 169 161 157 164 163 170 175 172 147 156 179 164 172 167 165 164 164 153 141 155 161 173 171 149 93 106 115 119 136 139 141 159 171 176 168 168 168 173 170 163 169 171 187 195 201 205 213 246 256 259 260 257 241 225 235 232 242 338 183 176 228 255 27 294 280
200 202 209 208 196 185 184 190 182 188 186 175 173 176 178 174 178 178 176 177 190 193 188 192 191 176 174 176 186 200 196 179 167 162 167 166 162 164 165 166 167 160 154 159 169 144 119 125 134 142 151 160 163 165 153 143 146 157 162 168 169 170 178 192 219 198 219 238 256 233 247 267 261 222 234 241 198 207 207 165 210 188 217 249 270
203 209 208 197 194 189 189 185 189 190 180 187 181 181 171 173 181 177 172 182 193 185 202 208 201 195 193 193 197 196 198 181 168 176 182 187 182 171 157 145 152 156 157 160 164 155 143 138 151 136 136 131 95 92 100 122 145 146 149 165 183 205 198 187 203 211 196 223 241 236 241 252 270 243 251 209 231 207 199 176 197 199 222 223 233
203 210 205 197 197 192 189 192 193 190 194 184 178 174 181 184 189 182 189 187 169 178 192 178 189 183 178 183 193 184 181 184 188 187 180 174 172 150 148 155 153 160 156 163 179 175 159 151 152 165 158 138 134 148 149 137 114 107 119 149 183 196 216 223 209 207 187 212 236 255 230 256 268 257 193 202 174 200 187 210 221 213 214 221 234
204 210 201 202 197 193 193 195 199 198 186 182 176 185 189 203 192 184 177 177 177 177 171 177 176 179 182 183 178 177 174 187 184 173 167 170 169 156 159 156 156 158 168 171 173 176 177 161 155 157 152 136 152 157 150 131 117 107 110 115 125 126 134 180 237 217 187 210 212 240 232 166 223 217 223 179 154 201 190 229 218 222 217 226 234
204 205 205 205 196 197 196 199 202 193 185 180 182 194 197 190 186 185 184 182 178 178 174 175 183 174 173 166 162 173 183 174 168 162 166 169 163 143 140 138 140 139 142 156 171 182 169 156 147 133 125 134 169 166 148 144 130 121 112 114 121 118 128 152 174 178 187 194 206 225 227 202 214 231 230 204 211 217 199 216 217 229 238 3 18
208 201 212 208 205 201 197 200 200 189 184 184 190 198 195 191 187 179 174 171 170 162 180 175 170 171 166 159 156 173 179 179 160 164 164 168 145 132 139 134 126 119 112 129 170 165 155 142 134 124 125 148 200 193 190 157 136 122 109 112 105 122 144 196 197 204 198 197 204 206 215 210 208 215 216 211 225 202 116 44 44 81 321 294 268
211 209 217 213 208 202 199 198 197 191 186 189 200 200 192 189 183 166 171 175 170 177 178 170 167 164 164 167 168 171 172 187 174 163 161 154 135 142 134 126 123 120 129 166 159 148 129 122 124 132 144 169 196 196 188 160 131 126 124 104 114 93 119 168 199 217 228 224 221 224 228 233 242 246 240 224 213 175 137 199 250 160 178 268 265
214 210 218 217 209 202 202 197 196 191 188 200 200 192 181 177 182 171 177 172 181 180 164 156 163 170 168 172 178 168 174 177 173 163 159 160 154 151 147 135 130 126 131 128 113 100 89 129 147 150 159 184 193 182 179 155 144 148 134 108 35 31 23 76 61 23 20 44 249 242 252 264 266 265 261 252 231 169 176 232 230 136 213 225 265
214 212 220 212 201 200 200 201 200 195 198 203 189 185 186 180 162 162 169 164 172 161 164 159 161 171 178 171 175 167 161 171 168 160 165 157 148 146 145 137 132 126 121 96 27 58 22 116 168 180 182 208 201 189 184 158 151 150 150 121 67 7 284 169 139 51 5 7 332 4 328 340 325 309 324 319 286 191 208 208 112 176 230 245 254
218 216 214 187 190 191 195 201 205 203 204 186 181 183 164 162 170 169 167 163 160 166 167 167 167 176 171 169 175 173 160 166 163 159 162 157 150 144 144 141 144 140 136 141 122 38 357 320 249 198 195 199 200 191 187 170 151 153 133 137 137 302 193 130 169 156 197 189 251 273 269 345 344 3 7 10 3 39 219 170 150 172 213 238 234
226 211 191 182 185 193 194 200 205 207 197 185 171 169 176 176 165 170 168 161 156 164 172 171 167 172 178 181 173 177 171 161 168 160 162 158 151 144 152 143 140 138 141 137 153 165 212 245 265 247 192 178 167 184 175 180 160 151 157 162 182 179 146 99 171 165 163 160 199 342 358 358 348 0 353 338 311 335 10 156 161 180 190 226 248
210 193 198 191 186 186 194 196 195 194 179 169 177 183 180 170 173 170 165 162 166 169 169 171 172 174 182 182 179 173 173 167 156 163 159 159 157 148 144 156 153 140 134 141 164 207 217 219 224 227 182 156 144 141 144 148 158 138 178 194 203 211 175 147 139 105 104 80 57 10 357 350 327 320 303 284 272 273 251 253 254 216 224 206 204
187 191 190 194 193 188 186 187 189 182 185 184 179 182 173 173 175 170 170 168 168 169 173 174 173 177 178 186 182 175 168 170 160 153 155 150 157 158 154 150 158 146 148 171 188 197 205 214 237 243 200 153 121 101 99 103 86 135 189 223 221 224 136 113 110 93 75 69 43 343 330 325 321 308 301 294 285 271 270 262 264 260 271 263 244
180 182 189 193 194 196 190 186 185 184 185 180 182 179 180 179 173 179 178 174 174 174 179 177 177 180 183 183 187 179 174 162 164 156 150 150 152 162 163 162 160 165 153 167 184 178 182 203 209 196 158 120 96 83 74 71 74 59 52 42 34 83 113 112 101 108 96 50 358 333 321 303 287 298 288 277 272 269 265 265 272 273 259 277 284
185 198 199 197 193 191 188 190 186 186 185 179 182 185 182 176 180 184 178 185 183 185 184 180 184 184 180 184 182 176 173 166 158 156 149 149 156 161 165 166 172 158 158 181 161 180 181 171 171 146 115 98 88 78 65 63 62 57 56 58 69 92 109 122 123 110 58 325 305 298 291 279 263 255 272 279 304 351 11 313 291 269 259 247 251
203 210 205 199 196 179 182 190 192 189 186 188 191 188 183 183 186 183 186 193 192 189 185 184 187 184 190 181 177 177 170 169 165 162 156 154 158 161 158 159 165 165 160 167 180 171 170 144 118 100 94 92 85 79 78 65 66 61 54 54 61 86 111 110 108 115 223 279 269 283 284 289 289 288 317 72 358 299 310 297 330 309 311 315 339
215 215 211 206 187 183 189 188 186 189 188 191 192 188 186 190 191 187 192 193 193 193 186 188 191 190 189 183 174 171 176 177 175 173 170 164 160 150 137 143 143 127 118 126 129 125 117 117 114 109 97 86 78 72 65 54 55 38 36 39 53 66 105 129 141 151 242 259 282 270 278 236 115 34 329 343 318 304 286 270 296 288 310 328 329
218 226 212 177 184 186 200 193 187 188 191 187 190 193 196 194 199 198 194 193 190 195 192 192 193 193 191 180 171 170 182 187 185 178 175 168 160 135 148 142 153 151 137 132 132 131 116 99 83 72 78 66 59 52 48 52 53 45 35 29 42 43 66 78 99 121 144 199 257 279 296 320 323 322 337 334 291 293 287 274 274 298 317 18 342
209 199 181 178 194 190 195 191 193 190 192 198 205 199 193 194 202 214 224 223 217 204 198 200 200 197 188 181 176 182 181 195 196 163 162 165 157 161 167 170 156 151 150 139 118 109 102 91 91 73 69 80 69 59 44 38 31 29 33 25 32 48 62 87 92 85 78 53 309 314 304 331 310 320 287 286 279 273 279 262 283 264 304 277 258
199 205 190 192 192 187 194 193 192 193 193 196 197 213 216 205 204 203 203 208 222 231 212 213 191 173 185 195 194 195 194 161 131 163 163 165 163 161 161 156 149 142 149 142 127 112 107 107 98 104 91 85 79 71 54 45 26 13 358 15 27 38 57 74 92 112 115 129 244 287 297 306 302 292 291 275 275 274 260 243 268 288 264 284 287
207 208 192 203 194 189 187 189 191 192 193 191 194 192 183 205 208 199 180 177 180 186 183 156 146 165 162 167 355 119 129 151 156 154 162 163 163 161 154 150 145 147 143 124 89 119 134 120 107 83 93 91 90 92 99 82 96 8 333 327 48 66 30 56 53 97 88 178 247 234 236 256 267 274 268 275 276 280 288 286 228 248 248 264 279
212 209 204 199 187 192 189 187 182 188 192 188 188 185 184 177 294 231 186 179 174 174 176 170 171 171 170 160 154 129 162 158 154 164 162 166 163 158 156 152 149 151 151 122 100 115 120 117 109 109 110 101 112 124 130 141 199 154 176 16 350 5 69 351 319 114 259 242 248 254 252 245 249 255 257 264 267 277 279 288 275 266 273 274 266
221 213 196 191 190 191 189 190 191 190 190 186 190 185 188 189 177 131 42 174 175 169 161 159 159 161 159 162 166 160 152 151 153 151 156 153 156 156 157 155 157 153 129 108 127 116 117 111 108 118 126 119 131 129 150 144 155 353 164 148 303 300 308 283 57 300 233 233 212 241 241 244 248 264 268 279 288 289 299 292 290 286 280 271 275
237 226 208 194 189 192 195 195 193 196 192 190 189 188 193 189 183 161 145 124 95 75 124 153 157 154 155 157 157 149 147 150 148 150 149 149 148 150 143 142 144 141 126 135 133 128 123 120 120 123 121 119 117 116 132 149 166 179 268 258 241 273 293 302 320 283 268 269 260 272 279 287 296 300 299 305 289 287 283 278 283 279 275 272 272
239 246 234 207 203 204 199 197 194 192 189 190 188 189 187 179 161 165 167 162 154 146 128 109 127 136 143 150 147 144 146 149 149 150 150 152 148 132 116 110 102 76 71 80 111 114 116 117 116 119 120 115 123 126 139 167 187 194 219 285 304 298 302 301 273 267 260 261 261 265 262 272 288 298 304 303 307 298 283 277 268 265 273 277 282
228 216 200 205 210 217 209 201 198 195 194 191 181 174 162 156 160 163 145 129 132 131 104 75 67 108 125 130 139 140 140 143 148 150 154 152 143 131 126 126 107 101 105 113 111 115 113 117 117 118 115 109 104 96 111 84 44 41 26 32 16 13 5 2 334 335 327 320 261 263 287 278 278 268 267 276 270 265 269 272 279 289 287 285 278
227 216 204 205 202 190 183 180 185 177 159 147 144 145 144 146 141 138 137 139 135 124 125 119 105 84 74 105 130 133 133 136 140 145 145 141 121 98 97 114 122 123 107 118 118 112 108 102 103 98 91 93 79 78 66 63 52 38 33 29 18 11 342 339 343 353 343 352 329 319 291 261 244 247 252 259 269 266 272 277 282 283 281 282 286
232 215 202 179 171 167 155 161 144 131 138 138 145 142 147 150 148 144 140 137 136 136 137 140 130 134 136 135 103 107 99 89 80 67 60 66 73 97 105 114 123 126 125 116 110 112 107 102 95 97 97 100 100 87 86 72 63 52 35 18 4 354 335 332 324 327 324 319 313 310 316 321 327 333 324 309 295 291 281 275 275 278 282 288 288
235 211 181 171 172 172 169 153 152 152 150 152 155 154 156 149 143 142 141 138 139 139 138 135 135 136 137 138 124 124 105 104 106 108 93 87 87 101 114 114 117 114 107 105 105 104 109 108 108 105 102 100 97 89 85 83 71 60 36 28 356 328 337 6 12 1 5 1 358 349 350 341 341 342 336 328 310 302 292 282 277 277 283 284 278
200 194 185 176 172 168 164 166 160 165 167 161 163 158 151 156 156 153 147 145 147 146 148 146 150 152 156 148 146 138 122 126 126 130 122 112 107 102 107 116 115 121 123 118 112 114 112 112 113 108 107 99 95 90 86 88 79 60 41 20 13 11 10 10 355 359 354 343 344 335 332 323 323 337 329 312 302 289 279 270 266 269 279 284 286
186 174 175 188 172 162 158 165 172 173 169 169 161 163 166 159 152 148 146 144 142 142 139 133 126 132 148 148 133 127 127 132 130 124 122 119 114 109 109 114 124 122 121 117 116 113 115 118 117 114 106 104 98 95 83 83 68 67 44 35 22 2 354 346 347 353 352 352 342 339 342 351 350 342 326 317 312 311 315 318 313 307 296 292 288
167 167 166 165 162 163 165 169 164 149 152 154 163 162 152 149 148 148 146 144 140 136 128 124 121 118 117 120 121 119 114 115 114 113 112 111 108 107 105 105 95 102 99 111 122 128 126 115 111 100 99 92 92 85 85 73 75 63 58 34 19 342 328 318 346 9 354 347 343 342 343 333 322 313 308 305 304 300 297 288 291 293 291 287 281
163 158 155 152 159 167 166 159 146 148 145 145 138 128 133 138 139 138 132 132 133 133 131 124 120 106 105 111 112 109 106 113 112 116 113 113 106 103 101 102 100 97 100 100 96 103 101 101 95 90 88 85 83 86 83 83 81 72 44 37 335 303 294 310 356 343 337 330 330 319 317 310 306 298 292 289 290 294 291 297 293 288 283 280 277
146 130 128 129 126 109 119 134 139 133 135 126 123 128 131 126 123 126 128 127 127 122 119 117 118 113 110 105 101 102 107 113 115 119 118 111 110 114 115 109 109 105 105 95 90 86 89 89 90 86 82 75 75 74 83 75 94 100 75 32 311 289 304 319 316 320 320 330 314 319 319 313 308 311 305 298 297 289 293 300 305 306 303 301 293
133 145 134 129 127 125 119 111 120 120 120 119 118 117 120 125 126 125 124 125 120 115 115 115 113 115 109 111 109 111 113 116 115 109 112 110 113 106 106 109 109 107 107 99 91 85 82 86 83 82 72 73 71 72 63 62 70 106 164 179 214 256 268 264 261 277 291 274 274 279 279 280 273 276 278 284 289 305 314 315 307 296 291 284 285
138 141 137 134 127 125 122 120 117 121 122 122 122 117 113 111 116 121 122 120 118 117 116 108 104 101 105 112 118 115 120 117 114 111 105 97 102 110 115 113 108 99 90 90 80 80 80 86 83 85 84 81 81 71 78 85 82 38 280 218 228 243 251 248 260 254 258 244 250 251 259 256 264 271 282 282 290 294 287 288 291 290 288 289 288
138 129 132 132 130 126 126 127 125 121 119 119 120 123 121 117 111 105 103 102 112 116 119 125 124 124 120 111 115 115 112 114 115 113 111 115 115 116 116 113 105 96 91 88 87 84 84 84 92 90 98 90 102 100 98 88 102 199 254 259 255 260 261 249 241 233 240 245 246 243 252 259 262 274 284 291 286 287 291 293 294 289 290 286 284
139 131 127 128 130 129 128 128 118 120 104 103 96 93 95 99 104 107 118 118 117 117 112 110 107 110 109 111 110 114 115 110 114 120 120 122 124 115 115 112 107 104 103 98 94 93 87 90 90 101 102 102 108 110 129 154 183 238 242 261 253 243 254 254 241 240 241 231 235 251 264 266 268 268 274 281 287 294 294 287 287 285 286 281 282
126 129 129 128 126 127 120 114 121 107 109 110 101 94 94 93 95 97 96 98 101 100 113 120 119 122 117 120 117 114 120 120 123 126 127 125 125 119 114 111 111 109 106 101 106 106 104 101 103 113 120 123 122 140 157 190 239 240 255 257 261 262 260 261 259 237 243 241 243 246 245 251 253 264 277 285 280 279 279 283 285 283 282 282 286
116 117 125 125 114 108 86 79 83 102 97 101 108 105 100 98 100 101 109 110 111 117 119 117 114 124 127 127 129 133 132 136 135 132 130 127 125 122 118 109 111 113 113 116 110 115 108 120 116 124 130 151 163 188 210 217 236 252 257 255 263 267 273 287 288 268 258 239 240 237 248 266 282 286 283 277 272 277 278 281 282 283 282 282 280
117 110 102 106 106 110 109 114 116 109 114 118 120 121 125 123 121 122 118 118 120 119 114 111 114 121 125 130 126 131 135 131 128 129 127 129 129 121 117 115 112 114 113 116 115 108 122 116 128 128 145 156 217 234 241 240 249 253 255 259 266 280 287 276 260 270 308 324 245 266 268 262 273 283 285 280 281 274 273 273 267 264 268 274 279